This is the latest recevied weather packets stored in our database for station/object KC4GS-13. If no packets are shown the sender has not sent any weather packets the latest 10 day(s).
| Time | Temp. | Humidity | Pressure | Rain* | Wind** | Luminosity | Snow |
|---|---|---|---|---|---|---|---|
| 1787930655 | 25.56° C | 89% | 1019.4 hPa | 0 mm | - | 177 W/m² | - |
| 1787930350 | 25.56° C | 90% | 1019.2 hPa | 0 mm | - | 164 W/m² | - |
| 1787930046 | 25.56° C | 90% | 1019.4 hPa | 0 mm | - | 174 W/m² | - |
| 1787929743 | 25° C | 91% | 1019.1 hPa | 0 mm | - | 153 W/m² | - |
| 1787929439 | 25° C | 92% | 1019.1 hPa | 0 mm | - | 168 W/m² | - |
| 1787929136 | 24.44° C | 93% | 1019.2 hPa | 0 mm | - | 167 W/m² | - |
| 1787928832 | 24.44° C | 94% | 1019.1 hPa | 0 mm | - | 189 W/m² | - |
| 1787928531 | 24.44° C | 95% | 1019.2 hPa | 0 mm | - | 208 W/m² | - |
| 1787928230 | 23.89° C | 95% | 1019.1 hPa | 0 mm | - | 181 W/m² | - |
| 1787927929 | 23.89° C | 96% | 1019.2 hPa | 0 mm | - | 189 W/m² | - |
| 1787927624 | 23.89° C | 96% | 1019.1 hPa | 0 mm | - | 163 W/m² | - |
| 1787927319 | 23.89° C | 97% | 1019.4 hPa | 0 mm | - | 140 W/m² | - |
| 1787927014 | 23.89° C | 97% | 1019.2 hPa | 0 mm | - | 136 W/m² | - |
| 1787926708 | 23.89° C | 97% | 1019.3 hPa | 0 mm | - | 143 W/m² | - |
| 1787926407 | 23.89° C | 98% | 1019.3 hPa | 0 mm | - | 153 W/m² | - |
| 1787926101 | 23.33° C | 98% | 1019.2 hPa | 0 mm | - | 118 W/m² | - |
| 1787925801 | 23.33° C | 98% | 1019 hPa | 0 mm | - | 161 W/m² | - |
| 1787925498 | 23.33° C | 98% | 1019 hPa | 0 mm | - | 129 W/m² | - |
| 1787925190 | 23.33° C | 98% | 1019.2 hPa | 0 mm | - | 102 W/m² | - |
| 1787924889 | 23.33° C | 98% | 1019.2 hPa | 0 mm | - | 91 W/m² | - |
| 1787924584 | 23.33° C | 98% | 1019.2 hPa | 0 mm | - | 75 W/m² | - |
| 1787924279 | 23.33° C | 99% | 1019.1 hPa | 0 mm | - | 74 W/m² | - |
| 1787923973 | 23.33° C | 99% | 1019 hPa | 0 mm | - | 88 W/m² | - |
| 1787923668 | 22.78° C | 99% | 1018.9 hPa | 0 mm | - | 101 W/m² | - |
| 1787923363 | 23.33° C | 99% | 1018.7 hPa | 0 mm | - | 101 W/m² | - |
* Rain latest hour (hover to see other rain measurements)
** Current wind speed in m/s (hover to see current wind gust speed)